Hourly Data Report for October 01, 2020

CARBERRY CS
MANITOBA
Current Station Operator: ECCC - MSC

49°54'20.900" N
99°21'26.800" W
383.50 m
5010547
71170
WZE

Download Data

Hourly Data (October 2020)
Hourly Data Report for October 1, 2020
TIME
LST
Temp Definition
°C
Dew Point Definition
°C
Rel Hum Definition
%
Precip. Amount Definition
mm

Wind Dir Definition
10's deg

Wind Spd Definition
km/h
Visibility Definition
km
Stn Press Definition
kPa
Hmdx Definition


Wind Chill Definition


Weather Definition


00:00 4.3 3.3 93 0.0 2 16   97.82     LegendNANA
01:00 4.2 4.1 100 0.0 36 11   97.89     LegendNANA
02:00 4.9 2.1 82 0.0 34 18   97.95     LegendNANA
03:00 4.4 1.8 83 0.0 34 17   98.03     LegendNANA
04:00 4.3 1.4 81 0.0 34 15   98.06     LegendNANA
05:00 2.9 0.9 87 0.0 33 13   98.14     LegendNANA
06:00 0.2 -0.3 96 0.0 31 13   98.17     LegendNANA
07:00 -0.9 -1.0 100 0.0 31 10   98.21   -4 LegendNANA
08:00 1.4 0.5 93 0.0 28 10   98.25     LegendNANA
09:00 4.1 1.3 82 0.0 31 20   98.28     LegendNANA
10:00 5.4 0.7 72 0.0 33 15   98.29     LegendNANA
11:00 7.1 -0.4 59 0.0 34 16   98.26     LegendNANA
12:00 7.1 -2.1 52 0.0 33 13   98.24     LegendNANA
13:00 7.0 -1.7 54 0.0 36 15   98.21     LegendNANA
14:00 7.8 -1.7 51 0.0 33 10   98.18     LegendNANA
15:00 8.3 -0.8 52 0.0 36 11   98.12     LegendNANA
16:00 7.6 -0.5 56 0.0 2 11   98.06     LegendNANA
17:00 7.2 -1.2 55 0.0 4 10   98.05     LegendNANA
18:00 6.6 -1.5 56 0.0 3 6   98.03     LegendNANA
19:00 6.1 -1.0 60 0.0 7 6   97.98     LegendNANA
20:00 4.8 -0.4 69 0.0 9 10   97.98     LegendNANA
21:00 3.4 -0.4 76 0.0 11 7   97.96     LegendNANA
22:00 1.2 -2.1 78 0.0 15 4   97.93     LegendNANA
23:00 -0.7 -2.3 89 0.0 15 1   97.93   -1 LegendNANA

Notes on Data Quality.

Legend

  • E = Estimated
  • M = Missing
  • NA = Not Available*
  • [empty] = Indicates an unobserved value
Date modified: